Lake of the Ozarks Weather Center

Moon Phase Calendar



Lake of the Ozarks Water Level
Online Cameras

 


      

Current Conditions in Four Seasons
2/3/2023 2:20:41 PM

32°F
Feels Like 32
Clear
Humidity
33%
Pressure
30.68"
Wind
2.2 mph (SSE)
Dew Point
9°F
UV Index
2/10 (Low)
Visibility
6 mi

Hourly Forecast

Date & Time Fri, Feb 3
2:00 PM
Fri, Feb 3
3:00 PM
Fri, Feb 3
4:00 PM
Fri, Feb 3
5:00 PM
Fri, Feb 3
6:00 PM
Fri, Feb 3
7:00 PM
Fri, Feb 3
8:00 PM
Fri, Feb 3
9:00 PM
Fri, Feb 3
10:00 PM
Fri, Feb 3
11:00 PM
Sat, Feb 4
12:00 AM
Sat, Feb 4
1:00 AM
Sat, Feb 4
2:00 AM
Sat, Feb 4
3:00 AM
Sat, Feb 4
4:00 AM
Sat, Feb 4
5:00 AM
Sat, Feb 4
6:00 AM
Sat, Feb 4
7:00 AM
Sat, Feb 4
8:00 AM
Sat, Feb 4
9:00 AM
Sat, Feb 4
10:00 AM
Sat, Feb 4
11:00 AM
Sat, Feb 4
12:00 PM
Sat, Feb 4
1:00 PM
Sat, Feb 4
2:00 PM
Sat, Feb 4
3:00 PM
Sat, Feb 4
4:00 PM
Sat, Feb 4
5:00 PM
Sat, Feb 4
6:00 PM
Sat, Feb 4
7:00 PM
Sat, Feb 4
8:00 PM
Sat, Feb 4
9:00 PM
Sat, Feb 4
10:00 PM
Sat, Feb 4
11:00 PM
Sun, Feb 5
12:00 AM
Sun, Feb 5
1:00 AM
Sun, Feb 5
2:00 AM
Sun, Feb 5
3:00 AM
Sun, Feb 5
4:00 AM
Sun, Feb 5
5:00 AM
Sun, Feb 5
6:00 AM
Sun, Feb 5
7:00 AM
Sun, Feb 5
8:00 AM
Sun, Feb 5
9:00 AM
Sun, Feb 5
10:00 AM
Sun, Feb 5
11:00 AM
Sun, Feb 5
12:00 PM
Sun, Feb 5
1:00 PM
Condition
Clear

Clear

Clear

Clear

Clear

Clear

Clear

Clear

Clear

Clear

Clear

Clear

Clear

Clouds

Clouds

Clouds

Clouds

Clouds

Clouds

Clouds

Clouds

Clouds

Clouds

Clouds

Clouds

Clouds

Clouds

Clouds

Clouds

Clouds

Clouds

Clouds

Clouds

Clouds

Clouds

Clouds

Clouds

Clouds

Clouds

Clouds

Clouds

Clouds

Clouds

Clouds

Clouds

Clouds

Clear

Clear
Temperature 32°F33°F34°F33°F29°F27°F27°F27°F27°F28°F29°F30°F30°F31°F33°F34°F35°F36°F37°F40°F43°F45°F48°F49°F50°F49°F48°F46°F45°F44°F43°F42°F42°F42°F42°F43°F44°F44°F44°F45°F44°F41°F40°F43°F47°F51°F54°F56°F
Feels Like 32°F33°F31°F30°F25°F22°F22°F22°F22°F21°F21°F22°F23°F24°F25°F26°F28°F28°F30°F32°F36°F39°F42°F44°F47°F44°F43°F41°F39°F37°F36°F35°F35°F35°F35°F37°F38°F38°F38°F39°F39°F36°F36°F39°F44°F48°F51°F53°F
Cloudiness 0%0%0%0%0%0%0%0%0%0%0%0%6%21%41%52%60%100%100%100%100%100%100%100%100%100%100%100%100%100%100%67%67%73%78%100%100%97%95%96%94%34%25%19%15%12%10%6%
Visibility 6 mi6 mi6 mi6 mi6 mi6 mi6 mi6 mi6 mi6 mi6 mi6 mi6 mi6 mi6 mi6 mi6 mi6 mi6 mi6 mi6 mi6 mi6 mi6 mi6 mi6 mi6 mi6 mi6 mi6 mi6 mi6 mi6 mi6 mi6 mi6 mi6 mi6 mi6 mi6 mi6 mi6 mi6 mi6 mi6 mi6 mi6 mi6 mi
Precipitation 0%0%0%0%0%0%0%0%0%0%0%0%0%0%0%0%0%0%0%0%0%0%0%0%0%0%0%0%0%0%0%0%0%0%0%0%0%0%0%0%0%0%0%0%0%0%0%0%
Humidity 33%30%29%33%39%44%48%53%61%67%70%70%74%77%80%80%77%74%73%68%63%60%56%55%54%55%59%62%67%71%74%78%80%82%84%86%87%90%90%87%89%94%96%82%65%53%46%41%
Dew Point 9°F8°F8°F10°F10°F8°F9°F12°F15°F18°F20°F21°F22°F24°F27°F28°F28°F29°F29°F30°F31°F32°F32°F33°F34°F33°F34°F34°F34°F34°F35°F35°F36°F37°F37°F39°F40°F41°F41°F41°F40°F39°F39°F38°F36°F34°F33°F33°F
Pressure 30.68"30.65"30.62"30.56"30.53"30.47"30.47"30.47"30.45"30.42"30.42"30.39"30.36"30.33"30.3"30.27"30.3"30.27"30.27"30.24"30.24"30.21"30.15"30.12"30.09"30.09"30.06"30.06"30.09"30.09"30.06"30.06"30.06"30.06"30.03"30.03"30.03"30.03"30.03"30.03"30.06"30.09"30.09"30.09"30.09"30.12"30.09"30.06"
Wind Speed 2.2 mph2.8 mph3 mph3.3 mph4.2 mph4.4 mph4.6 mph4.4 mph4.8 mph6.2 mph7.4 mph8.2 mph8 mph8.4 mph9.1 mph9.6 mph10.8 mph11.6 mph12.1 mph12.8 mph13.4 mph13.8 mph13.7 mph13.9 mph13.6 mph13.9 mph12.9 mph12 mph12.2 mph12.5 mph12.4 mph12.1 mph12.1 mph12.2 mph12.7 mph12.8 mph12.4 mph12 mph11.5 mph11.1 mph9.1 mph7 mph6.2 mph7.3 mph7.2 mph7.3 mph7.5 mph7.5 mph
Wind
Direction
168°
SSE
181°
S
178°
S
135°
SE
137°
SE
145°
SE
161°
SSE
166°
SSE
181°
S
183°
S
187°
S
190°
S
195°
SSW
197°
SSW
202°
SSW
202°
SSW
212°
SSW
213°
SSW
213°
SSW
215°
SW
214°
SW
212°
SSW
212°
SSW
214°
SW
212°
SSW
212°
SSW
206°
SSW
204°
SSW
206°
SSW
205°
SSW
200°
SSW
203°
SSW
204°
SSW
206°
SSW
209°
SSW
218°
SW
228°
SW
236°
SW
244°
WSW
255°
WSW
259°
W
254°
WSW
251°
WSW
258°
WSW
261°
W
261°
W
262°
W
268°
W

Daily Forecast

Date High Low Precip. Humidity
Today
Feb 3

Clear
34 °F
17 °F
0%
27%
Saturday
Feb 4

Clouds
50 °F
29 °F
0%
56%
Sunday
Feb 5

Clear
58 °F
40 °F
0%
46%
Monday
Feb 6

Clouds
60 °F
40 °F
0%
72%
Tuesday
Feb 7

Rain
59 °F
44 °F
100%
94%
Wednesday
Feb 8

Clouds
53 °F
40 °F
0%
55%
Thursday
Feb 9

Clouds
57 °F
35 °F
0%
37%
Friday
Feb 10

Clouds
39 °F
30 °F
13%
53%
Saturday
Feb 11

Clear
36 °F
22 °F
0%
31%
Sunday
Feb 12

Clear
46 °F
22 °F
0%
21%
Monday
Feb 13

Clouds
51 °F
33 °F
14%
64%
Tuesday
Feb 14

Snow
51 °F
28 °F
100%
77%
Wednesday
Feb 15

Clear
36 °F
20 °F
0%
37%
Thursday
Feb 16

Clouds
36 °F
24 °F
0%
32%
Friday
Feb 17

Clear
44 °F
22 °F
0%
32%
Saturday
Feb 18

Clouds
46 °F
28 °F
0%
51%

Temperature 8-14 Day Outlook



Precipitation 8-14 Day Outlook






About Us
Contact Us
Site Map
Search Site
Advertise With Us
   
Ozarks.USLakes.info
THE LAKE OF THE OZARKS WEBSITE

Copyright 2023, Lakes Online
Privacy    |    Legal